Location: Unspecified
(52.1384°N, 8.6525°W)
Time: 10:33:19
(UTC+00:00)

XW-2F - Pass Details

Date: 25 January 2021
Orbit: 500 x 519 km, 97.5° (Epoch: 24 February)

Event Time Altitude Azimuth Distance (km) Brightness Sun altitude
Rises 06:48:40 0° 14° (NNE) 2,661 ? -14.6°
Reaches altitude 10° 06:50:47 10° 17° (NNE) 1,769 ? -14.2°
Maximum altitude 06:54:36 75° 103° (ESE) 547 ? -13.7°
Drops below altitude 10° 06:58:23 10° 189° (S) 1,752 ? -13.1°
Sets 07:00:28 0° 191° (S) 2,634 ? -12.8°
